Weather History for KANB - November, 2012

Change the Weather History Date:

Monday, November 5, 2012

  Actual Average Record
Temperature  
Mean Temperature 50 °F 57 °F  
Max Temperature 64 °F 69 °F 84 °F (1948)
Min Temperature 35 °F 45 °F 20 °F (1991)
Degree Days  
Heating Degree Days 15    
Month to date heating degree days 52  
Since 1 July heating degree days 205  
Moisture  
Dew Point 39 °F    
Average Humidity 66    
Maximum Humidity 100    
Minimum Humidity 32    
Precipitation  
Precipitation 0.38 in 0.14 in 1.24 in (1993)
Month to date precipitation 0.41 0.66  
Year to date precipitation 38.68 41.63  
Sea Level Pressure  
Sea Level Pressure 30.04 in    
Wind  
Wind Speed 3 mph (ENE)    
Max Wind Speed 9 mph    
Max Gust Speed 12 mph    
Visibility 7 miles    
Events Rain    
T = Trace of Precipitation, MM = Missing Value Source: NWS Daily Summary

Daily Weather History Graph

Daily Weather History Graph

Search for Another Location

Airport or City:

Trip Planner

Search our weather history database for the weather conditions in past years. The results will help you decide how hot, cold, wet, or windy it might be!

Date:

Astronomy

Nov. 05, 2012 Rise Set
Actual Time 6:06 AM CST 4:47 PM CST
Civil Twilight 5:40 AM CST 5:13 PM CST
Nautical Twilight 5:10 AM CST 5:42 PM CST
Astronomical Twilight 4:41 AM CST 6:12 PM CST
Moon 10:23 PM CST (11/5) 11:24 AM CST (11/5)
Length of Visible Light 11h 32m
Length of Day
10h 40m
Waning Gibbous, 62% of the Moon is Illuminated
Nov 5
Waning Gibbous
Nov 6
Last Quarter
Nov 13
New
Nov 20
First Quarter
Nov 28
Full

Hourly Weather History & Observations

Time (CST) Temp. Windchill Dew Point Humidity Pressure Visibility Wind Dir Wind Speed Gust Speed Precip Events Conditions
12:53 AM 45.0 °F 41.8 °F 37.9 °F 76% 30.10 in 9.0 mi ENE 5.8 mph - N/A   Clear
1:53 AM 44.1 °F 41.5 °F 37.0 °F 76% 30.10 in 8.0 mi NE 4.6 mph - N/A   Clear
2:53 AM 39.0 °F - 37.0 °F 93% 30.10 in 7.0 mi Calm Calm - N/A   Clear
3:53 AM 37.0 °F - 35.1 °F 93% 30.11 in 5.0 mi Calm Calm - N/A   Clear
4:53 AM 36.0 °F - 35.1 °F 97% 30.13 in 5.0 mi Calm Calm - N/A   Clear
6:53 AM 37.9 °F 34.4 °F 36.0 °F 93% 30.13 in 5.0 mi East 4.6 mph - N/A   Clear
7:53 AM 45.0 °F 41.2 °F 37.9 °F 76% 30.12 in 7.0 mi East 6.9 mph - N/A   Clear
8:53 AM 54.0 °F - 39.0 °F 57% 30.11 in 9.0 mi NE 3.5 mph - N/A   Clear
9:53 AM 55.9 °F - 36.0 °F 47% 30.10 in 10.0 mi Variable 4.6 mph - N/A   Clear
10:53 AM 60.1 °F - 33.1 °F 36% 30.08 in 10.0 mi East 9.2 mph - N/A   Clear
11:53 AM 64.0 °F - 36.0 °F 35% 30.04 in 10.0 mi ESE 4.6 mph - N/A   Clear
12:53 PM 62.1 °F - 32.0 °F 32% 30.02 in 10.0 mi East 3.5 mph - N/A   Clear
1:53 PM 62.1 °F - 33.1 °F 34% 29.99 in 10.0 mi East 4.6 mph - N/A   Clear
2:53 PM 62.1 °F - 34.0 °F 35% 30.00 in 10.0 mi Calm Calm - N/A   Partly Cloudy
3:53 PM 61.0 °F - 37.0 °F 41% 30.00 in 10.0 mi Calm Calm - N/A   Mostly Cloudy
4:53 PM 57.9 °F - 37.9 °F 47% 29.98 in 10.0 mi NE 4.6 mph - N/A   Mostly Cloudy
5:53 PM 57.0 °F - 37.9 °F 49% 29.99 in 10.0 mi NE 3.5 mph - N/A   Mostly Cloudy
6:53 PM 55.0 °F - 39.9 °F 57% 29.99 in 10.0 mi East 5.8 mph - N/A   Overcast
7:53 PM 55.0 °F - 39.9 °F 57% 29.99 in 8.0 mi Calm Calm - N/A   Overcast
8:53 PM 53.1 °F - 43.0 °F 69% 29.99 in 7.0 mi Variable 4.6 mph - 0.01 in Rain Light Rain
9:53 PM 48.9 °F - 46.9 °F 93% 29.99 in 4.0 mi Calm Calm - 0.05 in Rain Light Rain
10:23 PM 48.2 °F - 46.4 °F 93% 30.00 in 2.5 mi SSW 4.6 mph - 0.07 in Rain Rain
10:39 PM 48.2 °F - 46.4 °F 93% 30.00 in 1.2 mi Calm Calm - 0.13 in Rain Rain
10:53 PM 48.0 °F - 46.9 °F 96% 30.00 in 2.5 mi Calm Calm - 0.19 in Rain Rain
11:04 PM 48.2 °F - 46.4 °F 93% 29.98 in 3.0 mi ENE 3.5 mph - 0.03 in Rain Light Rain
11:53 PM 48.0 °F - 46.9 °F 96% 29.97 in 3.0 mi ENE 3.5 mph - 0.12 in Rain Light Rain